#timestamp,LO_Frequency,Hit,StdDev 
1518476415.2,286047002.5,N
1518476435.9,286047002.2,N
1518476455.7,286047001.6,N
1518476475.6,286047002.1,N
1518476495.4,286047002.3,N
1518476515.2,286047002.0,N
1518476535.1,286047001.4,N
1518476536.0,286047001.4,N
1518476555.8,286047001.6,N
1518476575.7,286047002.0,N
1518476595.5,286047001.6,N
1518476615.3,286047001.5,N
1518476635.2,286047003.9,Y
1518476655.0,286047000.3,P
1518476655.9,286047000.3,N
1518476675.8,286046999.7,N
1518476695.6,286047000.1,N
1518476715.4,286047000.0,N
1518476735.3,286046999.8,N
1518476755.1,286046999.9,N
1518476775.8,286047002.6,Y
1518476795.7,286047002.4,P
1518476815.5,286046999.8,N
1518476835.4,286047000.0,N
1518476855.2,286046999.8,N
1518476875.0,286047002.8,N
1518476875.9,286047002.8,N
1518476895.8,286046999.8,N
1518476915.6,286047002.7,N
1518476935.4,286047002.7,N
1518476955.3,286047000.0,N
1518476975.1,286047000.7,N
1518476995.9,286046998.5,N
1518477015.2,286047000.9,N
1518477035.9,286046999.4,N
1518477055.7,286046999.6,N
1518477075.6,286046998.8,N
1518477095.4,286046996.7,N
1518477115.2,286046997.4,N
1518477135.2,286046997.3,N
1518477155.0,286046997.9,N
1518477155.9,286046997.9,N
1518477205.8,286046996.3,E
1518477215.7,286046996.7,N
1518477235.6,286046999.4,P
1518477255.4,286046999.0,N
1518477275.4,286046999.4,N
1518477295.2,286046999.0,N
1518477315.1,286046999.5,N
1518477316.0,286046999.5,N
1518477335.8,286046999.5,N
1518477355.6,286046998.9,N
1518477375.5,286046996.6,Y
1518477395.3,286046999.0,P
1518477415.2,286046999.6,P
1518477435.9,286046997.9,P
1518477455.7,286046994.9,Y
1518477475.6,286046999.4,P
1518477495.4,286046998.8,P
1518477515.3,286046999.1,P
1518477535.1,286046999.6,N
1518477536.0,286046999.6,N
1518477555.8,286046996.9,Y
1518477575.7,286046996.6,P
1518477595.5,286046997.0,N
1518477615.4,286046997.2,N
1518477635.2,286046999.2,N
1518477655.0,286046999.5,N
1518477655.9,286046999.5,N
1518477675.8,286046999.1,N
1518477695.6,286046999.6,N
1518477715.4,286046996.8,N
1518477735.3,286046996.7,N
1518477755.1,286046999.3,N
1518477775.9,286046996.6,N
1518477795.7,286046997.5,N
1518477815.5,286046997.7,N
1518477835.4,286046998.0,N
1518477855.2,286046997.4,N
1518477875.1,286046995.0,Y
1518477876.0,286046995.0,P
1518477895.8,286046996.8,N
1518477945.7,286046997.0,E
1518477955.6,286046999.3,N
1518477975.4,286046998.2,P
1518477995.3,286047000.0,N
1518478015.1,286047000.2,N
1518478035.9,286046999.8,N
1518478055.7,286047000.3,N
1518478075.5,286047001.0,N
1518478095.4,286047000.7,N
1518478115.2,286047000.7,N
1518478135.0,286046998.6,N
1518478135.9,286046998.6,N
1518478155.8,286046998.8,N
1518478175.6,286047000.7,N
1518478195.5,286047000.8,N
1518478215.3,286047001.1,N
1518478235.6,286046998.5,N
1518478255.4,286047001.2,N
1518478275.3,286047000.8,N
1518478295.1,286046998.8,N
1518478315.9,286046999.1,N
1518478335.7,286046999.2,N
1518478355.5,286046997.0,Y
1518478375.4,286046999.3,P
1518478395.2,286046999.6,N
1518478415.1,286046996.6,P
1518478435.0,286046996.7,N
1518478455.3,286046996.5,N
1518478475.2,286046999.2,N
1518478495.0,286046997.0,N
1518478495.9,286046997.0,N
1518478515.7,286046997.0,N
1518478535.6,286046996.8,N
1518478555.4,286046996.7,N
1518478575.3,286046996.7,N
1518478595.1,286046999.6,N
1518478596.0,286046999.6,N
1518478615.8,286046999.5,N
1518478635.7,286046998.9,N
1518478655.5,286046996.5,N
1518478675.3,286046996.6,N
1518478695.2,286046996.6,N
1518478715.0,286046997.3,N
1518478715.9,286046997.3,N
1518478735.8,286046996.8,N
1518478755.6,286046996.5,N
1518478775.4,286046999.4,N
1518478795.3,286046999.4,N
1518478815.1,286046997.8,N
1518478835.9,286046997.0,N
1518478855.7,286046996.7,N
1518478875.6,286046997.1,N
1518478895.4,286046997.5,N
1518478915.2,286046997.7,N
1518478935.1,286046994.9,Y
1518478936.0,286046994.9,P
1518478955.8,286047000.8,N
1518478975.7,286046998.6,N
1518478995.6,286046999.0,N
1518479015.4,286046998.7,N
1518479035.3,286046998.7,N
1518479055.1,286046998.2,N
1518479056.0,286046998.2,N
1518479075.8,286047000.4,N
1518479095.7,286047000.4,N
1518479115.5,286047000.2,N
1518479135.3,286047002.7,N
1518479155.2,286047002.0,N
1518479175.0,286047001.5,N
1518479175.9,286047001.5,N
1518479195.8,286047002.8,N
1518479215.6,286047000.6,N
1518479235.4,286046998.2,N
1518479255.3,286046998.2,N
1518479275.1,286047000.9,N
1518479295.8,286047002.8,N
1518479315.7,286047000.1,N
1518479335.9,286047002.4,N
1518479355.7,286047002.7,N
1518479375.6,286047002.7,N
1518479395.4,286047001.0,N
1518479415.2,286046999.7,N
1518479435.1,286047002.4,N
1518479436.0,286047002.4,N
1518479455.8,286047002.1,N
1518479475.6,286047002.8,N
1518479495.5,286047002.4,N
1518479515.3,286047002.0,N
1518479535.2,286047003.9,N
1518479555.9,286047004.4,N
1518479575.7,286047004.3,N
1518479595.6,286047003.3,N
1518479615.4,286047003.9,N
1518479635.2,286047003.5,N
1518479655.1,286047003.0,N
1518479656.0,286047003.0,N
1518479675.8,286047004.0,N
1518479695.7,286047003.1,N
1518479715.5,286047005.9,Y
1518479735.3,286047002.4,P
1518479755.2,286047002.0,P
1518479775.0,286047002.0,P
1518479775.9,286047002.0,Y
1518479795.8,286046998.1,P
1518479815.6,286046998.1,N
1518479835.4,286047000.9,N
1518479855.3,286046998.2,N
1518479875.1,286046999.0,N
1518479895.8,286046998.4,N
1518479915.7,286046998.4,N
1518479935.5,286047000.5,N
1518479955.4,286046998.5,N
1518479975.2,286047000.7,N
1518479995.0,286047000.6,N
1518479995.9,286047000.6,N
